COSMOS 2251 DEB, 33839

Orbit data source: Space-Track

COSMOS 2251 DEB, 33839 is space debris in LEO originally from a launch on Wed, 16 Jun 1993 UTC launched from the Plesetsk Missile And Space Complex (PKMTR). The debris from Iridium 33, an American commercial communications satellite, has been tracked extensively since its accidental collision with the defunct Russian satellite Cosmos 2251 in 2009. This event, occurring at high speed in low Earth orbit (LEO), generated thousands of pieces of space debris, significantly increasing the risk of further collisions. The Iridium 33 debris cloud has impacted space traffic management and orbital debris mitigation strategies, making it a subject of ongoing study in space situational awareness.

Loading next visibility...
Identifier
33839, 1993-036CG
Orbit
LEO
Country
Flag of CISCIS
Related business
Manufacturer
Unknown
Mission
Spacecraft
Bus & Motor
Unknown
Mass
Unknown
Launch date (UTC)
1993-06-16 (33 years ago)
Launch vehicle
Unknown
Launch site
Plesetsk Missile And Space Complex (PKMTR)
Object type
Payload
Rocket body
Debris
Shape & HBR
Unknown shape, 0.2 m
Radar Cross Section
Medium (>0.1 m² and <1 m²)

Expand to show TLE details & history
Last TLE update: 1 day ago

TLE from 1 day ago
0 COSMOS 2251 DEB
1 33839U 93036CG  26228.04104233  .00000562  00000-0  10550-3 0  9991
2 33839  74.0377  92.9383 0083189 143.2525 288.3448 14.65007269931865
Epoch: 2026-08-16T00:59Z
TLE epoch observation values (Epoch: 2026-08-16T00:59:06.057Z)
Latitude
65.24191°
Longitude
151.80811°
Altitude
669.924 km
Speed
7.538 km/s
True Right ascension
08h 44m 06s
True Declination
65° 06' 33"
Sunlit
Object was in daylight at epoch
Visualization orbit readout
Latitude
Unknown
Longitude
Unknown
Altitude
Unknown
Speed
Unknown
Apparent Right ascension
Unknown
Apparent Declination
Unknown
Sunlit
N/A
Visualization observer readout
Local Sidereal Time
16:19:16
Azimuth
Unknown
Elevation
Unknown
Doppler factor
Unknown
Orbital elements
Apogee altitude
733.315 km
Perigee altitude
615.972 km
Semi-major axis
7,052.781 km
Eccentricity
0.00832
Inclination
74.0377°
RAAN
92.9383°
Arg. of periapsis
143.2525°
True anomaly
287.43704°
Mean anomaly
288.3448°
Eccentric anomaly
287.89121°
Mean motion
3.6644 °/min
Orbital period
98.24 mins
BSTAR
0.0001055
Loading maneuver chart data...
Computing Atmospheric mass density...

Documentation

Showing up to 5 results
|